FW1562 Weather Reports


time (UTC)temp
C
wind
direction
speed
KPH
gust
KPH
rain 1hr
cm
rain 24hr
cm
rain mn
cm
humidity
%
barometer
mb
20260505181531 27 155 4.8 16.1 0.00 0.00 0.00 83 1011.4
20260505181301 27 205 4.8 16.1 0.00 0.00 0.00 84 1011.3
20260505180529 27 157 6.4 17.7 0.00 0.00 0.00 83 1011.2
20260505180029 27 207 8.0 19.3 0.00 0.00 0.00 84 1011.3
20260505175527 27 187 8.0 19.3 0.00 0.00 0.00 85 1011.2
20260505175028 26 187 9.7 19.3 0.00 0.00 0.00 84 1011.3
20260505174759 26 171 8.0 19.3 0.00 0.00 0.00 84 1011.5
20260505174258 26 168 6.4 20.9 0.00 0.00 0.00 84 1011.5
20260505173527 26 198 3.2 20.9 0.00 0.00 0.00 85 1011.7
20260505173024 26 238 3.2 14.5 0.00 0.00 0.00 86 1011.6
20260505172524 26 180 3.2 17.7 0.00 0.00 0.00 88 1011.8
20260505172252 25 158 3.2 17.7 0.00 0.00 0.00 87 1012.0
20260505171521 25 230 3.2 12.9 0.00 0.00 0.00 87 1012.0
20260505171248 25 180 3.2 16.1 0.00 0.00 0.00 88 1012.0
20260505170517 25 210 1.6 16.1 0.00 0.00 0.00 87 1012.1
20260505170246 25 198 3.2 12.9 0.00 0.00 0.00 88 1012.1
20260505165516 25 200 4.8 14.5 0.00 0.00 0.00 88 1012.1
20260505165017 25 162 4.8 14.5 0.00 0.00 0.00 89 1012.1
20260505164516 25 170 3.2 14.5 0.00 0.00 0.00 89 1012.1
20260505164013 25 211 1.6 16.1 0.00 0.00 0.00 90 1012.0
20260505163514 24 195 0.0 16.1 0.00 0.00 0.00 89 1011.9
20260505163013 24 233 1.6 11.3 0.00 0.00 0.00 89 1012.1
20260505162512 24 173 1.6 11.3 0.00 0.00 0.00 89 1012.0
20260505162011 24 188 0.0 8.0 0.00 0.00 0.00 89 1012.1
20260505161744 24 200 0.0 14.5 0.00 0.00 0.00 89 1012.1
20260505161243 24 183 0.0 14.5 0.00 0.00 0.00 90 1012.1
20260505160743 24 209 0.0 6.4 0.00 0.00 0.00 90 1012.1
20260505153011 23 226 4.8 17.7 0.00 0.00 0.00 92 1012.3
20260505152510 23 209 6.4 16.1 0.00 0.00 0.00 91 1012.2
20260505152010 23 185 6.4 16.1 0.00 0.00 0.00 91 1012.2
20260505151511 23 202 6.4 16.1 0.00 0.00 0.00 91 1012.3
20260505151009 23 180 6.4 14.5 0.00 0.00 0.00 91 1012.3
20260505150510 23 219 8.0 19.3 0.00 0.00 0.00 91 1012.2
20260505140508 22 161 1.6 17.7 0.00 0.00 0.00 93 1012.0
20260505125003 21 173 1.6 14.5 0.00 0.00 0.00 93 1011.5
20260505124734 21 171 1.6 14.5 0.00 0.00 0.00 93 1011.5
20260505124004 21 168 0.0 16.1 0.00 0.00 0.00 93 1011.6
20260505123734 21 252 0.0 16.1 0.00 0.00 0.00 94 1011.6
20260505123002 21 185 1.6 12.9 0.00 0.00 0.00 94 1011.6
20260505122504 21 192 1.6 12.9 0.00 0.00 0.00 94 1011.6
20260505122004 21 194 0.0 9.7 0.00 0.00 0.00 94 1011.4
20260505121503 21 172 0.0 9.7 0.00 0.00 0.00 94 1011.1
20260505121004 21 207 1.6 14.5 0.00 0.00 0.00 94 1011.4
20260505120502 21 178 1.6 14.5 0.00 0.00 0.00 94 1011.3
20260505120002 21 219 1.6 12.9 0.00 0.00 0.00 94 1011.2
20260505115502 21 205 1.6 14.5 0.00 0.00 0.00 94 1010.8
20260505115004 21 145 1.6 14.5 0.00 0.00 0.00 94 1010.9
20260505114501 21 177 0.0 9.7 0.00 0.00 0.00 94 1011.2
20260505114000 21 207 0.0 9.7 0.00 0.00 0.00 94 1011.3
20260505113457 21 185 0.0 11.3 0.00 0.00 0.00 94 1010.8
20260505112958 21 207 1.6 16.1 0.00 0.00 0.00 94 1010.8
20260505112457 21 177 1.6 16.1 0.00 0.00 0.00 94 1010.8
20260505111958 21 176 1.6 16.1 0.00 0.00 0.00 94 1010.8
20260505111458 21 209 1.6 14.5 0.00 0.00 0.00 94 1010.9
20260505110956 21 191 1.6 14.5 0.00 0.00 0.00 94 1011.0
20260505110727 21 185 0.0 8.0 0.00 0.00 0.00 93 1011.1
20260505101957 21 147 4.8 19.3 0.00 0.00 0.00 93 1011.0
20260505101455 21 171 1.6 19.3 0.00 0.00 0.00 93 1010.9
20260505100955 21 164 1.6 12.9 0.00 0.00 0.00 93 1010.9
20260505100455 20 178 1.6 14.5 0.00 0.00 0.00 93 1011.1
20260505095955 21 246 1.6 17.7 0.00 0.00 0.00 93 1011.0
20260505095453 21 179 1.6 17.7 0.00 0.00 0.00 93 1011.0
20260505094953 21 147 0.0 1.6 0.00 0.00 0.00 93 1010.9
20260505094452 21 172 0.0 4.8 0.00 0.00 0.00 93 1011.0
20260505093953 21 205 0.0 4.8 0.00 0.00 0.00 93 1011.3
20260505093452 20 196 0.0 1.6 0.00 0.00 0.00 93 1011.4
20260505092951 20 169 0.0 8.0 0.00 0.00 0.00 93 1011.5
20260505092450 20 168 0.0 8.0 0.00 0.00 0.00 93 1011.1
20260505091950 20 186 0.0 1.6 0.00 0.00 0.00 93 1011.3
20260505091449 20 163 0.0 1.6 0.00 0.00 0.00 93 1011.0
20260505090946 20 184 0.0 6.4 0.00 0.00 0.00 93 1011.1
20260505090447 20 192 0.0 6.4 0.00 0.00 0.00 93 1011.3
20260505085947 20 158 0.0 14.5 0.00 0.00 0.00 93 1011.3
20260505085448 20 161 0.0 14.5 0.00 0.00 0.00 93 1011.5
20260505084947 20 186 0.0 9.7 0.00 0.00 0.00 92 1011.5
20260505084445 20 180 0.0 9.7 0.00 0.00 0.00 92 1011.5
20260505083946 20 178 0.0 8.0 0.00 0.00 0.00 92 1011.6
20260505083444 20 169 0.0 8.0 0.00 0.00 0.00 92 1011.8
20260505082944 20 184 0.0 9.7 0.00 0.00 0.00 92 1012.0
20260505082718 20 193 0.0 11.3 0.00 0.00 0.00 91 1012.0
20260505081944 20 177 1.6 17.7 0.00 0.00 0.00 91 1011.9
20260505081444 20 162 1.6 17.7 0.00 0.00 0.00 91 1012.0
20260505080945 21 161 0.0 9.7 0.00 0.00 0.00 90 1011.8
20260505080444 21 187 0.0 8.0 0.00 0.00 0.00 90 1011.9
20260505080215 21 183 0.0 1.6 0.00 0.00 0.00 90 1012.0
20260505075444 21 184 0.0 1.6 0.00 0.00 0.00 90 1012.2
20260505074945 21 175 0.0 1.6 0.00 0.00 0.00 90 1012.2
20260505074445 21 178 0.0 12.9 0.00 0.00 0.00 90 1012.3
20260505074214 21 175 0.0 12.9 0.00 0.00 0.00 90 1012.3
20260505073713 21 207 0.0 6.4 0.00 0.00 0.00 90 1012.4
20260505072944 21 206 0.0 12.9 0.00 0.00 0.00 90 1012.4
20260505072443 21 212 0.0 12.9 0.00 0.00 0.00 90 1012.3
20260505071943 21 207 0.0 11.3 0.00 0.00 0.00 89 1012.3
20260505071442 21 185 0.0 11.3 0.00 0.00 0.00 89 1012.4
20260505070940 21 169 0.0 1.6 0.00 0.00 0.00 89 1012.5
20260505070711 21 167 0.0 9.7 0.00 0.00 0.00 89 1012.5
20260505065941 21 178 0.0 9.7 0.00 0.00 0.00 89 1012.5
20260505065439 21 171 0.0 11.3 0.00 0.00 0.00 89 1012.6
20260505064939 21 157 0.0 11.3 0.00 0.00 0.00 89 1012.8
20260505064437 21 146 0.0 1.6 0.00 0.00 0.00 89 1012.8
20260505063934 21 171 0.0 6.4 0.00 0.00 0.00 88 1012.9
20260505063434 21 169 0.0 12.9 0.00 0.00 0.00 88 1012.9
20260505062935 21 163 0.0 12.9 0.00 0.00 0.00 88 1012.9
20260505062435 21 175 0.0 1.6 0.00 0.00 0.00 88 1012.9
20260505061933 21 171 0.0 1.6 0.00 0.00 0.00 87 1012.9
20260505061431 21 161 0.0 1.6 0.00 0.00 0.00 87 1012.8
20260505060932 21 170 0.0 1.6 0.00 0.00 0.00 87 1012.9
20260505060430 21 173 0.0 19.3 0.00 0.00 0.00 87 1012.8
20260505060201 21 167 0.0 19.3 0.00 0.00 0.00 86 1012.8
20260505055431 21 165 0.0 3.2 0.00 0.00 0.00 86 1012.9
20260505054928 21 175 0.0 3.2 0.00 0.00 0.00 86 1013.1
20260505054701 21 173 0.0 3.2 0.00 0.00 0.00 85 1013.1
20260505053928 21 155 0.0 3.2 0.00 0.00 0.00 85 1013.0
20260505053427 21 155 0.0 3.2 0.00 0.00 0.00 85 1012.9
20260505053159 21 172 0.0 9.7 0.00 0.00 0.00 84 1012.8
20260505052426 21 189 0.0 12.9 0.00 0.00 0.00 84 1012.9
20260505051924 21 169 1.6 12.9 0.00 0.00 0.00 84 1013.0
20260505051657 21 171 1.6 12.9 0.00 0.00 0.00 84 1012.9
20260505050925 21 171 1.6 14.5 0.00 0.00 0.00 84 1012.8
20260505050424 21 178 3.2 22.5 0.00 0.00 0.00 84 1012.9
20260505041655 22 174 4.8 19.3 0.00 0.00 0.00 83 1013.3
20260505041155 22 155 6.4 19.3 0.00 0.00 0.00 83 1013.2
20260505040421 22 177 4.8 19.3 0.00 0.00 0.00 83 1013.2
20260505035920 21 155 1.6 16.1 0.00 0.00 0.00 83 1013.1
20260505035419 22 185 1.6 14.5 0.00 0.00 0.00 83 1013.1
20260505034917 22 168 3.2 14.5 0.00 0.00 0.00 83 1013.0
20260505034416 22 189 4.8 14.5 0.00 0.00 0.00 83 1013.0
20260505034145 22 165 3.2 14.5 0.00 0.00 0.00 83 1013.0
20260505033412 22 172 1.6 14.5 0.00 0.00 0.00 83 1013.0
20260505032912 22 161 1.6 11.3 0.00 0.00 0.00 82 1013.1
20260505032641 22 175 3.2 14.5 0.00 0.00 0.00 82 1013.0
20260505031910 22 192 3.2 14.5 0.00 0.00 0.00 82 1012.9
20260505031411 22 169 4.8 16.1 0.00 0.00 0.00 81 1013.0
20260505030908 22 166 4.8 16.1 0.00 0.00 0.00 81 1012.9
20260505030409 22 171 6.4 17.7 0.00 0.00 0.00 81 1012.8
20260505025908 22 178 6.4 17.7 0.00 0.00 0.00 81 1013.0
20260505025406 22 165 6.4 17.7 0.00 0.00 0.00 80 1012.9
20260505024907 22 171 8.0 17.7 0.00 0.00 0.00 80 1012.9
20260505024408 22 182 8.0 17.7 0.00 0.00 0.00 80 1012.7
20260505023906 22 167 6.4 17.7 0.00 0.00 0.00 80 1012.9
20260505023406 22 163 6.4 16.1 0.00 0.00 0.00 80 1012.9
20260505022907 22 164 8.0 19.3 0.00 0.00 0.00 80 1012.9
20260505022407 23 168 8.0 19.3 0.00 0.00 0.00 79 1012.7
20260505021906 23 171 8.0 16.1 0.00 0.00 0.00 79 1012.7
20260505021407 23 178 6.4 16.1 0.00 0.00 0.00 79 1012.7
20260505020906 23 163 4.8 16.1 0.00 0.00 0.00 79 1012.6
20260505020406 23 165 4.8 22.5 0.00 0.00 0.00 78 1012.5
20260505015906 23 169 4.8 22.5 0.00 0.00 0.00 78 1012.5
20260505015404 23 197 6.4 19.3 0.00 0.00 0.00 78 1012.5
20260505014905 23 158 6.4 19.3 0.00 0.00 0.00 78 1012.5
20260505014635 23 162 4.8 17.7 0.00 0.00 0.00 77 1012.5
20260505013905 23 171 4.8 17.7 0.00 0.00 0.00 77 1012.5
20260505013402 23 162 4.8 17.7 0.00 0.00 0.00 77 1012.5
20260505012903 23 175 6.4 17.7 0.00 0.00 0.00 77 1012.4
20260505012402 23 170 4.8 17.7 0.00 0.00 0.00 76 1012.2
20260505012135 23 169 4.8 19.3 0.00 0.00 0.00 76 1012.1
20260505011403 23 190 6.4 19.3 0.00 0.00 0.00 75 1012.1
20260505010903 23 176 6.4 16.1 0.00 0.00 0.00 75 1012.1
20260505010404 23 159 6.4 14.5 0.00 0.00 0.00 74 1012.0
20260505005902 24 158 8.0 14.5 0.00 0.00 0.00 74 1012.0
20260505005402 24 180 8.0 16.1 0.00 0.00 0.00 73 1012.0
20260505004903 24 166 4.8 16.1 0.00 0.00 0.00 73 1012.1
20260505004400 24 153 3.2 14.5 0.00 0.00 0.00 72 1012.1
20260505003902 24 179 6.4 16.1 0.00 0.00 0.00 72 1012.0
20260505003400 24 157 9.7 17.7 0.00 0.00 0.00 72 1012.1
20260505002900 25 189 9.7 19.3 0.00 0.00 0.00 71 1012.1
20260505002631 25 169 9.7 19.3 0.00 0.00 0.00 71 1012.3
20260505001900 25 181 8.0 19.3 0.00 0.00 0.00 71 1012.3
20260505001400 25 176 6.4 16.1 0.00 0.00 0.00 71 1012.3
20260505000901 25 184 6.4 20.9 0.00 0.00 0.00 71 1012.5
20260505000401 25 140 4.8 20.9 0.00 0.00 0.00 71 1012.4
20260504235900 25 161 4.8 16.1 0.00 0.00 0.00 71 1012.6
20260504235358 25 176 4.8 16.1 0.00 0.00 0.00 71 1012.5
20260504234858 25 164 8.0 19.3 0.00 0.00 0.00 71 1012.6
20260504234356 25 171 9.7 19.3 0.00 0.00 0.00 70 1012.7
20260504233857 25 178 8.0 19.3 0.00 0.00 0.00 70 1012.6
20260504233357 25 179 6.4 19.3 0.00 0.00 0.00 70 1012.5
20260504232857 25 175 8.0 17.7 0.00 0.00 0.00 70 1012.7
20260504232357 25 143 8.0 17.7 0.00 0.00 0.00 71 1012.8
20260504231857 25 181 8.0 17.7 0.00 0.00 0.00 70 1012.6
20260504231626 25 161 9.7 22.5 0.00 0.00 0.00 69 1012.6
20260504230856 25 162 6.4 22.5 0.00 0.00 0.00 69 1012.8
20260504230353 25 128 4.8 19.3 0.00 0.00 0.00 70 1013.0
20260504230126 25 159 6.4 20.9 0.00 0.00 0.00 69 1013.1
20260504225354 25 143 8.0 20.9 0.00 0.00 0.00 68 1013.3
20260504224855 26 160 9.7 19.3 0.00 0.00 0.00 69 1013.3
20260504224353 26 181 9.7 19.3 0.00 0.00 0.00 68 1013.2
20260504223855 26 181 9.7 17.7 0.00 0.00 0.00 67 1013.2
20260504223354 26 171 9.7 19.3 0.00 0.00 0.00 68 1013.3
20260504222854 26 173 8.0 19.3 0.00 0.00 0.00 68 1013.3
20260504222354 26 139 9.7 19.3 0.00 0.00 0.00 68 1013.3
20260504221854 26 161 11.3 20.9 0.00 0.00 0.00 67 1013.4
20260504221354 26 173 9.7 20.9 0.00 0.00 0.00 68 1013.4
20260504220855 26 155 8.0 19.3 0.00 0.00 0.00 66 1013.4
20260504220355 26 157 9.7 17.7 0.00 0.00 0.00 68 1013.4
20260504215852 26 223 11.3 29.0 0.00 0.00 0.00 66 1013.5
20260504215353 26 156 9.7 29.0 0.00 0.00 0.00 67 1013.6
20260504214853 26 215 8.0 17.7 0.00 0.00 0.00 67 1013.8
20260504214352 26 204 6.4 17.7 0.00 0.00 0.00 67 1014.0
20260504213853 26 167 9.7 20.9 0.00 0.00 0.00 66 1014.0
20260504213622 26 207 11.3 20.9 0.00 0.00 0.00 65 1014.1
20260504212851 26 259 9.7 24.1 0.00 0.00 0.00 67 1014.2
20260504212349 26 176 8.0 24.1 0.00 0.00 0.00 65 1014.1
20260504211850 26 163 8.0 19.3 0.00 0.00 0.00 66 1014.3
20260504211350 26 163 8.0 19.3 0.00 0.00 0.00 64 1014.5
20260504210849 26 161 8.0 22.5 0.00 0.00 0.00 64 1014.6
20260504210622 26 167 9.7 22.5 0.00 0.00 0.00 66 1014.6
20260504205847 26 156 8.0 17.7 0.00 0.00 0.00 65 1014.6
20260504205620 26 166 6.4 20.9 0.00 0.00 0.00 64 1014.8
20260504204849 27 192 8.0 20.9 0.00 0.00 0.00 63 1014.9
20260504204349 27 155 4.8 19.3 0.00 0.00 0.00 64 1015.0
20260504203848 27 147 4.8 17.7 0.00 0.00 0.00 62 1015.1
20260504203620 27 169 9.7 29.0 0.00 0.00 0.00 64 1015.1
20260504202848 26 184 9.7 29.0 0.00 0.00 0.00 65 1015.1
20260504202348 26 134 11.3 22.5 0.00 0.00 0.00 63 1015.2
20260504201848 26 175 8.0 22.5 0.00 0.00 0.00 61 1015.3
20260504201616 27 225 6.4 19.3 0.00 0.00 0.00 64 1015.3
20260504200847 26 144 11.3 19.3 0.00 0.00 0.00 64 1015.5
20260504200619 27 188 8.0 25.7 0.00 0.00 0.00 62 1015.5
20260504195844 27 189 3.2 25.7 0.00 0.00 0.00 64 1015.9
20260504195342 27 193 8.0 27.4 0.00 0.00 0.00 62 1015.8
20260504195115 26 194 11.3 27.4 0.00 0.00 0.00 61 1016.0
20260504194347 26 189 6.4 20.9 0.00 0.00 0.00 64 1016.2
20260504194341 26 177 8.0 27.4 0.00 0.00 0.00 62 1016.1
20260504193342 26 161 9.7 24.1 0.00 0.00 0.00 63 1016.1
20260504193113 26 169 9.7 24.1 0.00 0.00 0.00 63 1016.2
20260504192341 27 197 8.0 24.1 0.00 0.00 0.00 64 1016.2
20260504191841 26 175 8.0 24.1 0.00 0.00 0.00 65 1016.2
20260504191343 27 211 8.0 22.5 0.00 0.00 0.00 65 1016.2
20260504190843 26 149 9.7 24.1 0.00 0.00 0.00 66 1016.3
20260504190343 26 184 11.3 24.1 0.00 0.00 0.00 64 1016.2
20260504185843 26 175 11.3 25.7 0.00 0.00 0.00 65 1016.3
20260504185343 26 165 6.4 25.7 0.00 0.00 0.00 61 1016.5
20260504184844 26 229 6.4 19.3 0.00 0.00 0.00 64 1016.7
20260504184342 26 143 8.0 20.9 0.00 0.00 0.00 63 1016.7
20260504183843 26 180 8.0 20.9 0.00 0.00 0.00 64 1016.8
20260504183611 26 167 6.4 19.3 0.00 0.00 0.00 64 1016.9
20260504183112 26 169 3.2 16.1 0.00 0.00 0.00 64 1016.9
20260504182339 26 175 4.8 19.3 0.00 0.00 0.00 64 1016.8
20260504181840 26 167 9.7 20.9 0.00 0.00 0.00 63 1016.8